星链-37124(STARLINK-37124)

导读

STARLINK-37124(NORAD编号68283)是SpaceX星链星座中的一颗卫星。星链项目旨在构建全球卫星互联网,该卫星运行于近地轨道,属于星链卫星网络的组成部分,依托星座的激光互联技术,可参与提供全球宽带互联网接入服务。星链卫星普遍配备星间激光终端,支持高速数据传输,该卫星也遵循星链项目的自动碰撞规避等安全设计,以保障轨道运行安全,服务于全球网络覆盖需求。

Basic Information
目录编号:
68283
目录名称:
STARLINK-37124
国际标识:
2026-055X
轨道中心:
EARTH
卫星名称:
星链-37124
卫星全名:
星链-37124(STARLINK-37124)
卫星状态:
在轨 (已飞行176 天)
发射日期:
2026-03-19 UTC
国别 :
美国 (US)
星等 :
--
This satellite is enrolled in the Space Conjunction Data Service (SCDS) and the current flight risk assessment level is: No High Risk
Orbit Information
数据来源 国际轨道数据
星历时间: 2026-09-11T12:07:56+0800
16小时前
查看轨道信息
半长轴: 6840.684km
偏心率: 0.0000668
轨道倾角: 53.160°
近地点辐角 121.533°
升交点赤经 175.269°
平近点角 238.573°
近地点: 462.09km
远地点: 463.004km
周期: 93.845分钟
每日圈数: 15.344527
Detailed Information
固有亮度:
5
最大亮度:
2.5
卫星平台:
Starlink V1.0
覆盖范围:
全球
运营商:
太空探索技术公司
运营商所在国:
美国
制造商(研发单位):
太空探索技术公司
制造商所在国:
美国
使用方式:
暂无
Satellite Introduction
Starlink 计划是 SpaceX 推出的全球卫星互联网项目,通过发射低轨道卫星,为全球尤其是偏远地区提供高速、低延迟的互联网服务。自 2019 年起,Starlink 已部署数千颗卫星,旨在缩小全球数字鸿沟,推动互联网普及。该项目还为军事、航空等行业提供通信支持,带来广泛经济效益。
2D Orbit Map
3D Orbit Map
Orbit Altitude Analysis Chart
Orbit Inclination Analysis Chart
Orbit Comprehensive Analysis Chart
View Comprehensive Chart
Conjunction Data List
Event ID Objects TCA Miss Dist (km) Collision Risk Probability Collision Risk Index (CRI) Action
CDM_260912-175506-619106-828321
2026-09-12T
17:55:48+0000
0.669 km
远距离
6.123463E-5 中风险 0.71
CDM_260912-031705-287306-828321
2026-09-12T
03:17:19+0000
0.752 km
远距离
4.199695E-5 中风险 0.67
CDM_260913-205605-343206-828321
2026-09-13T
20:56:10+0000
0.853 km
远距离
4.0259E-5 中风险 0.67
CDM_260913-131606-593206-828321
2026-09-13T
13:16:44+0000
1.268 km
极远距离
1.017006E-5 中风险 0.55
CDM_260913-111205-884506-828321
2026-09-13T
11:12:00+0000
1.038 km
极远距离
7.197022E-6 低风险 0.52
CDM_260911-214905-287306-828323
2026-09-11T
21:49:03+0000
1.268 km
极远距离
7.163502E-6 低风险 0.52
CDM_260912-202606-828306-854822
2026-09-12T
20:26:11+0000
1.319 km
极远距离
4.522915E-6 低风险 0.48
CDM_260913-085105-884506-828321
2026-09-13T
08:51:19+0000
1.268 km
极远距离
3.668239E-6 低风险 0.46
CDM_260912-035106-041506-828321
2026-09-12T
03:51:19+0000
2.230 km
极远距离
1.487432E-6 低风险 0.38
CDM_260911-222306-041506-828321
2026-09-11T
22:23:04+0000
2.232 km
极远距离
1.482365E-6 低风险 0.38
Miss Distance Evolution Trend with All Objects
Collision Probability Evolution Trend with All Objects